Location: Hamlin Beach State Park
(43.3614°N, 77.9586°W)
Time: 23:21:30
(UTC-04:00)

ISS - Visible Passes

Search period start: 21 July 2018 00:00
Search period end: 31 July 2018 00:00
Orbit: 402 x 408 km, 51.6° (Epoch: 22 July)

Date Brightness Start Highest point End Pass type
(mag) Time Alt. Az. Time Alt. Az. Time Alt. Az.
21 Jul -1.0 01:35:48 10° NW 01:38:18 19° N 01:40:48 10° NE visible
21 Jul -2.6 03:12:13 10° NW 03:15:23 43° NNE 03:18:33 10° E visible
21 Jul -2.9 04:48:54 10° WNW 04:51:47 28° SW 04:54:40 10° SSE visible
21 Jul -3.6 21:29:02 10° SW 21:32:10 45° SE 21:35:20 10° ENE visible
21 Jul -1.9 23:05:45 10° W 23:08:45 32° NNW 23:11:45 10° NE visible
22 Jul -0.9 00:43:31 10° NW 00:45:57 19° N 00:48:23 10° NE visible
22 Jul -1.8 02:20:12 10° NW 02:23:09 30° NNE 02:26:07 10° E visible
22 Jul -3.8 03:56:34 10° WNW 03:59:47 52° SW 04:03:00 10° SE visible
22 Jul -2.7 22:13:21 10° WSW 22:16:31 47° NNW 22:19:43 10° NE visible
22 Jul -1.0 23:51:04 10° WNW 23:53:34 20° N 23:56:06 10° NE visible
23 Jul -1.4 01:28:07 10° NW 01:30:52 23° NNE 01:30:56 23° NNE visible
23 Jul -3.7 21:21:05 10° WSW 21:24:21 78° NNW 21:27:38 10° NE visible
23 Jul -1.3 22:58:32 10° WNW 23:01:13 23° NNW 23:03:55 10° NE visible
24 Jul -1.2 00:35:58 10° NW 00:38:30 20° N 00:39:32 18° NNE visible
24 Jul -1.7 22:05:59 10° W 22:08:54 28° NNW 22:11:49 10° NE visible
24 Jul -1.0 23:43:41 10° NW 23:46:07 19° N 23:48:33 10° NE visible
25 Jul -1.0 01:20:15 10° NW 01:21:14 17° NW 01:21:14 17° NW visible
25 Jul -2.3 21:13:30 10° W 21:16:36 40° NNW 21:19:44 10° NE visible
25 Jul -1.1 22:51:15 10° NW 22:53:43 19° N 22:56:11 10° NE visible
26 Jul -1.5 00:28:10 10° NW 00:30:30 24° N 00:30:30 24° N visible
26 Jul -1.2 21:58:43 10° WNW 22:01:19 21° N 22:03:56 10° NE visible
26 Jul -1.4 23:36:00 10° NW 23:38:36 21° N 23:39:49 17° NE visible
27 Jul -0.7 01:12:18 10° NW 01:12:27 11° NW 01:12:27 11° NW visible
27 Jul -1.2 22:43:44 10° NW 22:46:11 19° N 22:48:38 10° NE visible
28 Jul -1.4 00:20:11 10° NW 00:21:50 24° NNW 00:21:50 24° NNW visible
28 Jul -1.2 21:51:18 10° NW 21:53:44 19° N 21:56:10 10° NE visible
28 Jul -2.0 23:28:04 10° NW 23:30:58 28° NNE 23:31:14 27° NNE visible
29 Jul -1.6 22:35:54 10° NW 22:38:34 22° NNE 22:40:41 13° ENE visible
30 Jul -1.3 00:12:11 10° NW 00:13:18 20° NW 00:13:18 20° NW visible
30 Jul -1.4 21:43:38 10° NW 21:46:08 20° N 21:48:36 10° NE visible
30 Jul -2.6 23:20:01 10° NW 23:22:45 41° N 23:22:45 41° N visible
